Wind_Speed
4 9 13 13 11 10 12 16 20 24 33 36 34 43 49 53 55 54 52 49 48 48 44 38 37 37 32 30 31 30 30 24 24 23 20 16 16 12 11 11 11 10 8
12 14 16 17 17 17 16 16 18 22 31 39 41 42 47 51 53 52 54 53 51 51 49 45 44 40 36 35 34 34 31 27 32 23 19 12 10 11 11 11 11 12 8
15 18 21 21 20 20 19 18 18 21 26 36 40 40 45 46 50 54 55 58 57 55 53 48 44 44 41 41 39 38 37 36 34 24 16 12 9 19 13 14 13 13 11
17 18 19 20 20 20 20 21 22 20 23 31 40 45 49 50 53 56 58 59 60 59 55 52 52 49 44 44 41 40 40 36 40 31 21 18 11 13 12 15 15 13 13
18 19 21 21 20 19 19 22 25 24 21 27 39 49 51 51 49 49 53 60 62 62 59 57 56 54 46 45 43 41 43 41 38 39 36 26 15 12 12 21 20 14 10
18 19 20 21 22 22 21 21 24 26 26 27 31 46 54 52 48 49 51 53 61 63 63 60 59 53 48 48 43 42 42 38 32 32 34 30 25 18 16 14 23 19 14
18 21 23 23 24 24 24 24 24 27 28 35 36 36 54 55 56 57 56 56 57 62 65 63 59 57 53 49 45 41 40 40 35 32 30 23 19 12 17 18 25 20 15
24 26 26 26 26 26 26 28 26 28 30 32 40 47 43 54 56 57 58 56 56 60 62 65 63 59 55 49 44 41 43 40 36 32 27 27 24 23 23 24 29 22 9
30 31 30 30 29 30 32 32 29 31 31 32 37 47 49 52 60 58 57 55 54 56 59 62 65 63 58 51 46 42 39 37 34 32 27 24 24 28 23 25 28 24 19
34 34 34 33 32 32 31 31 31 34 36 38 42 50 55 45 57 57 57 54 53 53 55 58 63 60 57 52 48 44 41 39 34 30 32 28 29 29 28 29 25 19 14
35 37 38 36 36 33 33 31 34 33 39 47 49 44 54 39 56 53 54 52 54 52 54 54 58 57 54 52 49 45 42 38 34 31 29 29 31 29 26 28 28 22 16
35 36 37 38 39 39 36 35 39 42 47 49 50 38 47 38 50 50 51 53 53 51 53 52 54 55 53 51 47 44 43 39 35 32 31 28 27 25 27 26 24 25 20
36 38 39 41 38 39 36 38 43 48 43 46 48 33 39 35 39 47 50 50 50 50 50 50 53 53 51 42 43 40 39 35 37 33 31 34 28 27 27 29 27 25 23
36 38 40 34 40 43 44 47 45 43 47 48 44 29 33 33 36 40 41 42 43 46 46 48 47 51 51 51 48 49 47 41 35 34 36 33 31 29 30 28 25 27 25
37 40 39 41 40 43 45 42 41 44 48 43 37 28 29 28 32 34 37 37 39 41 42 41 47 52 52 50 52 46 44 42 39 36 36 29 29 27 28 28 28 27 26
37 37 41 45 44 44 40 39 42 42 44 42 33 27 23 23 25 26 29 33 34 36 39 47 53 51 50 51 44 44 40 40 38 36 30 30 32 32 31 28 28 26 24
33 40 42 46 44 42 38 38 40 35 40 39 30 24 20 25 20 24 28 32 34 39 43 49 49 50 48 45 44 38 37 36 34 30 30 31 30 30 28 26 24 25 24
37 40 41 46 40 44 39 33 34 30 35 35 26 22 18 21 21 24 27 31 35 39 41 44 43 43 38 38 37 37 33 28 28 28 28 27 30 31 28 26 26 25 26
37 36 39 39 46 38 31 33 28 29 29 32 19 21 20 17 17 22 24 32 32 35 36 38 40 39 39 37 33 26 27 27 27 27 28 28 28 28 28 29 27 27 26
37 38 37 31 40 35 28 29 30 27 28 26 20 16 17 17 16 20 26 29 29 32 33 33 32 31 30 31 29 27 28 28 26 26 24 24 25 27 26 24 25 25 25
34 36 25 33 38 32 28 24 24 27 24 17 22 15 15 16 17 19 23 25 31 30 31 30 27 27 28 29 28 29 29 28 28 28 26 24 24 22 23 24 24 23 21
35 30 32 40 35 29 28 27 26 26 24 14 16 13 14 17 20 23 26 29 30 32 32 29 27 24 24 24 28 27 25 24 24 24 24 25 25 24 24 22 23 21 20
31 26 28 34 32 28 24 26 25 21 17 10 12 11 14 17 20 25 29 31 30 31 32 29 27 27 28 28 28 29 27 21 19 21 24 24 25 24 24 25 22 21 20
27 25 26 33 32 29 25 22 21 17 9 7 10 8 12 14 19 23 27 29 30 31 33 30 30 30 31 31 31 30 29 23 26 24 21 21 23 22 23 23 23 22 20
21 21 23 30 28 25 22 19 16 12 8 3 6 6 9 13 19 20 25 28 28 30 32 31 31 32 33 33 32 31 31 32 28 22 21 22 22 21 21 21 22 21 19
17 19 26 25 23 20 18 14 12 11 8 3 1 2 8 12 16 18 21 23 24 24 24 25 25 26 26 26 27 29 31 33 27 22 21 22 21 19 19 18 18 20 18
Wind_Direction
326 20 8 356 353 322 298 272 257 247 253 255 248 237 239 242 245 244 242 241 232 226 224 211 215 217 208 205 204 193 184 178 173 164 166 165 170 171 171 168 168 162 168
16 350 346 342 336 326 319 301 275 257 249 256 259 249 248 245 245 246 240 239 236 232 227 215 221 217 208 209 208 198 185 181 191 172 157 159 175 181 176 175 176 167 162
349 338 334 333 334 333 325 309 299 278 262 250 257 255 246 248 245 241 238 236 237 234 230 220 217 220 211 214 213 205 198 186 195 189 161 160 190 168 188 183 182 172 174
345 335 329 326 321 321 323 324 315 300 280 261 255 256 253 248 249 247 242 235 232 230 230 225 220 223 210 213 215 209 201 197 198 183 194 170 184 168 171 191 187 178 191
339 334 329 325 322 320 317 320 320 314 298 288 261 264 257 256 249 251 246 240 233 229 226 223 219 221 218 215 214 206 201 205 205 196 194 188 177 189 177 177 184 182 181
335 334 332 329 324 321 318 317 316 315 313 288 286 263 265 261 245 239 241 240 236 230 225 222 222 221 216 216 214 205 207 206 199 204 207 203 188 182 189 184 182 180 171
342 333 333 332 323 322 321 321 315 312 310 308 290 282 267 266 256 246 245 243 237 229 226 221 218 217 216 214 214 211 207 206 199 199 201 195 196 213 193 188 176 175 178
331 327 330 330 324 320 316 316 315 314 310 304 302 298 285 254 255 247 246 245 245 241 232 222 218 217 216 213 211 211 206 204 202 196 197 199 202 206 193 185 174 171 170
324 321 323 324 324 321 315 313 306 304 312 312 305 306 281 259 246 245 239 246 243 238 231 226 219 216 214 208 205 202 206 202 202 207 203 203 211 208 194 180 186 179 165
323 322 320 318 319 321 323 317 309 304 301 308 314 308 307 277 244 242 237 240 240 233 222 217 217 213 210 202 202 203 203 201 205 207 208 206 208 210 203 186 179 192 180
319 319 319 317 317 316 319 321 314 309 303 308 312 303 309 277 239 239 239 243 235 226 219 214 214 208 203 197 198 196 197 195 192 195 191 202 207 199 190 187 193 185 176
316 314 315 313 314 313 314 315 315 310 316 316 312 299 308 282 244 237 234 231 228 220 216 211 210 204 196 194 191 193 195 187 189 189 179 195 204 197 201 193 187 191 167
314 315 314 312 310 311 314 314 311 309 316 309 311 300 307 285 241 235 231 227 222 216 212 213 212 204 196 190 179 187 183 184 187 186 190 195 195 201 203 195 188 180 179
310 313 310 323 322 320 317 315 309 311 313 308 310 297 315 284 246 233 229 223 217 214 210 211 211 199 196 187 183 188 192 188 192 192 191 193 197 199 202 194 193 181 181
311 309 317 317 313 313 311 307 309 311 317 310 305 287 315 277 249 236 230 224 220 218 215 209 200 194 190 189 194 196 185 189 183 187 200 193 199 197 206 198 193 185 178
311 317 313 312 309 308 306 303 308 310 316 312 307 289 289 288 252 236 227 214 207 206 200 194 191 186 190 192 190 184 177 183 186 195 195 202 197 200 198 195 189 185 182
310 313 312 312 307 304 301 298 304 308 314 311 307 292 290 275 245 222 205 197 194 189 187 186 188 187 188 185 180 174 183 190 195 199 202 200 198 198 196 196 192 187 176
314 311 310 313 307 305 303 299 298 304 305 306 303 294 277 271 251 226 212 202 195 190 189 189 189 186 181 175 172 178 189 192 194 205 203 201 201 197 193 191 189 188 188
312 307 309 307 316 316 305 297 296 301 299 298 302 279 264 258 247 224 212 199 192 192 191 185 182 175 176 180 178 175 190 185 195 203 205 202 197 196 194 198 195 193 193
309 311 313 314 319 318 308 301 297 302 301 291 287 265 251 240 224 211 201 192 191 186 184 182 186 181 176 172 174 183 194 194 200 196 196 196 197 198 199 198 198 198 195
312 314 316 316 320 323 318 310 310 305 304 284 282 273 238 231 219 205 198 191 190 188 183 179 178 178 179 176 181 197 201 200 197 195 193 192 196 197 199 197 200 202 200
314 320 324 321 323 321 320 317 318 311 306 288 276 269 236 221 211 198 190 188 187 179 176 179 177 182 182 186 189 194 202 201 202 202 201 199 196 194 198 197 201 199 197
315 327 326 335 330 325 319 314 319 318 309 300 271 258 235 216 208 196 191 188 187 181 180 184 184 187 192 195 197 197 198 193 196 209 213 203 198 197 197 205 203 202 203
317 327 330 337 335 331 328 327 331 333 333 284 254 238 216 207 200 199 196 193 188 188 187 188 190 191 193 195 194 198 199 193 206 209 205 198 201 198 205 208 205 205 206
319 330 334 340 339 334 334 339 340 353 354 323 232 205 206 195 194 192 198 199 200 201 196 196 199 198 199 201 203 207 206 199 202 199 194 188 194 197 205 206 206 203 203
320 334 342 343 344 342 344 354 355 9 0 30 94 137 196 177 187 186 193 204 205 202 206 209 209 208 217 212 214 213 207 201 195 193 192 194 197 194 198 200 205 207 212
Height
1448 1449 1450 1449 1448 1448 1448 1449 1449 1451 1446 1446 1448 1450 1449 1452 1454 1455 1457 1458 1462 1466 1470 1476 1480 1484 1488 1490 1493 1497 1501 1507 1509 1513 1517 1522 1523 1526 1529 1530 1530 1530 1530
1449 1453 1452 1451 1450 1448 1447 1446 1445 1445 1440 1438 1438 1442 1444 1443 1443 1446 1448 1450 1454 1458 1461 1466 1467 1474 1479 1483 1486 1490 1494 1501 1501 1505 1510 1520 1525 1525 1527 1529 1530 1528 1529
1454 1454 1452 1450 1448 1447 1445 1443 1442 1440 1440 1430 1432 1433 1435 1437 1435 1432 1434 1437 1442 1447 1453 1459 1461 1463 1469 1473 1477 1483 1485 1489 1495 1500 1501 1511 1514 1518 1524 1526 1528 1527 1527
1455 1454 1451 1450 1447 1444 1441 1440 1437 1435 1435 1428 1424 1422 1420 1419 1422 1427 1426 1422 1428 1433 1441 1448 1452 1455 1461 1462 1468 1475 1480 1482 1486 1492 1495 1496 1503 1511 1520 1523 1525 1525 1522
1452 1452 1451 1448 1445 1441 1438 1435 1434 1431 1429 1431 1421 1416 1413 1412 1412 1414 1417 1418 1416 1419 1425 1433 1439 1443 1451 1456 1459 1465 1473 1476 1480 1484 1486 1491 1496 1509 1507 1516 1520 1521 1521
1449 1449 1446 1444 1442 1439 1435 1431 1428 1426 1423 1419 1418 1412 1407 1407 1406 1403 1400 1407 1410 1409 1412 1420 1427 1435 1442 1446 1452 1457 1465 1471 1476 1480 1484 1485 1487 1497 1505 1508 1514 1516 1518
1446 1445 1441 1438 1437 1436 1433 1428 1424 1420 1418 1414 1409 1406 1398 1398 1394 1392 1392 1393 1398 1399 1399 1405 1416 1422 1429 1437 1444 1450 1456 1464 1468 1472 1477 1480 1486 1499 1500 1503 1509 1512 1513
1442 1440 1437 1434 1430 1429 1428 1425 1420 1415 1412 1407 1401 1396 1392 1383 1383 1383 1382 1383 1385 1390 1393 1394 1400 1409 1420 1427 1434 1444 1447 1455 1461 1469 1472 1473 1478 1494 1496 1496 1501 1507 1508
1436 1435 1433 1429 1424 1422 1420 1418 1414 1411 1406 1399 1393 1386 1381 1375 1366 1369 1370 1372 1375 1378 1383 1384 1389 1396 1408 1415 1425 1432 1435 1448 1456 1459 1463 1471 1480 1493 1494 1490 1496 1498 1501
1431 1429 1428 1425 1422 1418 1414 1409 1407 1405 1399 1393 1383 1377 1369 1364 1357 1356 1357 1362 1366 1369 1372 1374 1379 1388 1401 1404 1415 1425 1434 1441 1450 1454 1461 1469 1479 1485 1486 1485 1491 1498 1495
1427 1424 1422 1420 1416 1413 1412 1405 1402 1395 1389 1379 1373 1367 1360 1351 1345 1342 1348 1352 1355 1358 1363 1366 1373 1381 1394 1397 1404 1418 1427 1431 1442 1451 1450 1466 1475 1477 1480 1481 1485 1488 1494
1427 1424 1421 1418 1412 1409 1404 1400 1396 1388 1378 1367 1364 1354 1352 1343 1337 1334 1337 1340 1345 1350 1354 1360 1365 1373 1385 1389 1399 1412 1421 1424 1432 1444 1446 1463 1474 1474 1477 1479 1478 1483 1487
1427 1424 1419 1416 1409 1404 1399 1394 1389 1380 1369 1359 1354 1346 1342 1338 1332 1330 1330 1333 1337 1342 1348 1354 1360 1368 1379 1391 1389 1400 1415 1418 1431 1438 1444 1456 1465 1470 1474 1477 1472 1478 1480
1424 1421 1417 1407 1406 1400 1396 1389 1382 1373 1363 1353 1346 1341 1335 1331 1329 1328 1328 1330 1334 1339 1344 1349 1358 1366 1373 1383 1389 1401 1402 1412 1431 1438 1445 1452 1459 1463 1470 1469 1469 1473 1475
1417 1415 1411 1405 1401 1397 1391 1385 1376 1366 1356 1348 1341 1336 1330 1328 1325 1325 1327 1329 1333 1337 1342 1348 1356 1362 1369 1379 1388 1391 1399 1414 1428 1436 1442 1447 1455 1459 1464 1466 1466 1469 1473
1412 1410 1409 1403 1396 1391 1384 1378 1369 1360 1353 1343 1335 1332 1328 1326 1325 1327 1329 1331 1334 1338 1342 1348 1352 1360 1368 1374 1383 1395 1405 1415 1422 1431 1437 1444 1448 1453 1459 1461 1463 1467 1470
1411 1407 1404 1398 1390 1383 1377 1370 1364 1356 1347 1339 1331 1328 1325 1325 1325 1327 1329 1330 1331 1338 1341 1347 1354 1361 1368 1379 1384 1393 1406 1414 1421 1429 1432 1440 1446 1451 1455 1459 1464 1465 1469
1409 1404 1399 1388 1381 1374 1368 1364 1358 1352 1343 1338 1329 1326 1324 1324 1324 1326 1328 1327 1328 1336 1340 1351 1356 1363 1371 1378 1389 1394 1406 1415 1424 1428 1432 1436 1443 1446 1450 1457 1461 1464 1467
1406 1399 1391 1381 1372 1365 1361 1356 1351 1347 1341 1334 1327 1324 1324 1323 1322 1322 1325 1330 1334 1340 1350 1354 1356 1366 1377 1382 1386 1397 1410 1418 1423 1426 1430 1436 1439 1443 1449 1453 1458 1461 1465
1401 1392 1383 1375 1367 1360 1355 1351 1346 1342 1338 1331 1326 1321 1323 1324 1326 1326 1328 1332 1338 1343 1349 1357 1367 1373 1378 1384 1391 1399 1408 1416 1421 1425 1431 1434 1437 1442 1447 1452 1456 1459 1463
1394 1386 1378 1370 1362 1354 1349 1345 1341 1335 1331 1327 1324 1321 1321 1323 1326 1328 1331 1334 1342 1348 1356 1363 1371 1378 1384 1388 1394 1401 1409 1413 1418 1423 1427 1431 1436 1441 1446 1451 1455 1458 1461
1388 1380 1371 1363 1356 1351 1345 1341 1336 1330 1326 1321 1320 1319 1319 1321 1324 1329 1334 1339 1344 1350 1357 1364 1370 1377 1383 1389 1394 1400 1407 1411 1416 1422 1426 1430 1435 1440 1445 1449 1452 1456 1460
1383 1376 1369 1360 1352 1347 1342 1337 1332 1327 1322 1320 1319 1319 1318 1320 1325 1328 1333 1341 1347 1350 1356 1363 1367 1374 1382 1388 1394 1398 1404 1410 1415 1421 1424 1430 1434 1439 1442 1445 1451 1455 1458
1379 1373 1366 1356 1348 1343 1338 1335 1329 1324 1321 1320 1322 1320 1321 1321 1326 1331 1335 1340 1344 1350 1356 1362 1367 1372 1380 1385 1391 1396 1402 1409 1415 1418 1422 1427 1433 1437 1439 1444 1449 1451 1454
1376 1372 1364 1355 1348 1342 1338 1332 1328 1326 1324 1323 1324 1321 1322 1324 1330 1333 1339 1343 1347 1351 1355 1361 1366 1370 1376 1383 1389 1392 1398 1405 1412 1417 1421 1425 1429 1433 1437 1442 1446 1449 1452
1374 1369 1361 1355 1349 1344 1339 1333 1329 1326 1327 1326 1325 1324 1327 1328 1333 1335 1341 1347 1351 1355 1359 1364 1368 1374 1379 1385 1389 1393 1398 1402 1410 1415 1419 1424 1427 1431 1435 1439 1442 1447 1450